FW1436 Weather Reports


Display with metric or nautical units.
time (UTC)temp
F
wind
direction
speed
MPH
gust
MPH
rain 1hr
in
rain 24hr
in
rain mn
in
humidity
%
barometer
mb
20260502193109 58 283 1.0 5.0 0.00 0.00 0.00 89 1011.1
20260502191657 58 248 1.0 5.0 0.00 0.00 0.00 89 1011.0
20260502190056 59 274 0.0 7.0 0.00 0.00 0.00 88 1011.0
20260502184555 59 233 0.0 6.0 0.00 0.00 0.00 88 1010.8
20260502183059 60 249 2.0 7.0 0.00 0.00 0.00 88 1010.8
20260502181556 60 257 0.0 3.0 0.00 0.00 0.00 89 1010.9
20260502163048 56 266 1.0 5.0 0.00 0.00 0.00 95 1011.3
20260502161552 55 280 2.0 6.0 0.00 0.00 0.00 95 1011.5
20260502160147 55 310 1.0 5.0 0.00 0.00 0.00 94 1011.5
20260502151545 63 306 1.0 4.0 0.00 0.00 0.00 84 1011.2
20260502123029 57 262 0.0 5.0 0.00 0.00 0.00 95 1013.4
20260502121528 58 283 1.0 7.0 0.00 0.00 0.00 95 1013.2
20260502114530 60 101 1.0 5.0 0.00 0.00 0.00 95 1013.4
20260502113025 59 127 1.0 6.0 0.00 0.00 0.00 95 1013.6
20260502111517 59 107 1.0 5.0 0.00 0.00 0.00 96 1014.0
20260502110018 58 79 1.0 5.0 0.00 0.00 0.00 96 1014.3
20260502104519 57 141 0.0 4.0 0.00 0.00 0.00 96 1014.6
20260502103011 0 0.0 0.0 0.00 0.00 0.00 1014.6
20260502101506 0 0.0 0.0 0.00 0.00 0.00 1014.8
20260502071514 0 0.0 0.0 0.00 0.00 0.00 1015.1
20260502070010 0 0.0 0.0 0.00 0.00 0.00 1015.0
20260502064505 0 0.0 0.0 0.00 0.00 0.00 1015.3
20260502063005 0 0.0 0.0 0.00 0.00 0.00 1015.3
20260502061505 0 0.0 0.0 0.00 0.00 0.00 1015.8
20260502054556 0 0.0 0.0 0.00 0.00 0.00 1014.8
20260502053057 0 98 3.0 6.0 0.00 0.00 0.00 1014.7
20260502051551 58 114 2.0 5.0 0.00 0.00 0.00 84 1014.8
20260502050050 58 124 0.0 3.0 0.00 0.00 0.00 82 1015.4
20260502044547 58 172 1.0 3.0 0.00 0.00 0.00 82 1015.2
20260502043117 58 113 1.0 4.0 0.00 0.00 0.00 82 1015.0
20260502041558 58 108 0.0 6.0 0.00 0.00 0.00 82 1014.9
20260502040044 59 108 0.0 2.0 0.00 0.00 0.00 82 1015.5
20260502034542 59 138 0.0 2.0 0.00 0.00 0.00 81 1015.6
20260502033042 59 124 0.0 3.0 0.00 0.00 0.00 81 1015.4
20260502031540 59 120 0.0 4.0 0.00 0.00 0.00 81 1015.3
20260502030046 59 158 0.0 4.0 0.00 0.00 0.00 81 1015.5
20260502024538 59 162 0.0 4.0 0.00 0.00 0.00 81 1015.6
20260502023036 59 153 1.0 5.0 0.00 0.00 0.00 80 1015.7
20260502021534 59 116 1.0 4.0 0.00 0.00 0.00 80 1015.7
20260502020035 60 139 0.0 5.0 0.00 0.00 0.00 80 1015.7
20260502014530 60 102 1.0 5.0 0.00 0.00 0.00 79 1016.0
20260502013030 60 106 1.0 4.0 0.00 0.00 0.00 79 1016.0
20260502011529 60 150 1.0 7.0 0.00 0.00 0.00 79 1016.0
20260502010030 60 157 2.0 7.0 0.00 0.00 0.00 79 1016.2
20260502004530 60 136 0.0 2.0 0.00 0.00 0.00 79 1016.3
20260502003025 61 64 1.0 3.0 0.00 0.00 0.00 78 1016.1
20260502001523 61 227 0.0 9.0 0.00 0.00 0.00 77 1016.1
20260502000023 61 150 3.0 10.0 0.00 0.00 0.00 76 1016.1
20260501234518 62 152 4.0 11.0 0.00 0.00 0.00 76 1016.2
20260501233018 62 123 0.0 8.0 0.00 0.00 0.00 76 1016.4
20260501231518 62 165 2.0 9.0 0.00 0.00 0.00 75 1016.4
20260501230022 63 145 2.0 7.0 0.00 0.00 0.00 74 1016.3
20260501224511 63 160 1.0 9.0 0.00 0.00 0.00 73 1016.3
20260501223008 64 238 1.0 8.0 0.00 0.00 0.00 71 1016.2
20260501221506 65 188 1.0 10.0 0.00 0.00 0.00 70 1016.1
20260501220003 65 236 4.0 9.0 0.00 0.00 0.00 69 1016.0
20260501214502 66 151 3.0 12.0 0.00 0.00 0.00 68 1016.0
20260501213001 66 98 6.0 14.0 0.00 0.00 0.00 66 1016.0
20260501211603 67 142 2.0 11.0 0.00 0.00 0.00 63 1015.8
20260501211501 67 137 3.0 11.0 0.00 0.00 0.00 63 1015.8
20260501210100 66 189 0.0 6.0 0.00 0.00 0.00 61 1015.7
20260501204608 65 141 1.0 10.0 0.00 0.00 0.00 58 1015.6
20260501203058 66 243 0.0 0.0 0.00 0.00 0.00 53 1015.2
20260501201557 66 243 0.0 0.0 0.00 0.00 0.00 54 1014.9
20260501200057 67 243 0.0 0.0 0.00 0.00 0.00 53 1014.9
20260501194556 69 243 0.0 0.0 0.00 0.00 0.00 46 1014.6